www.pogodaiklimat.ru
ПОГОДА в Вельмо

Архив погоды в Вельмо (Красноярский край, Россия)

Время
(UTC), дата
09 14.05
12 14.05
15 14.05
18 14.05
21 14.05
00 15.05
03 15.05
06 15.05
09 15.05
12 15.05
15 15.05
18 15.05
21 15.05
00 16.05
03 16.05
06 16.05
09 16.05
12 16.05
15 16.05
18 16.05
21 16.05
00 17.05
03 17.05
06 17.05
09 17.05
12 17.05
15 17.05
18 17.05
21 17.05
00 18.05
03 18.05
06 18.05
09 18.05
12 18.05
15 18.05
18 18.05
21 18.05
00 19.05
03 19.05
06 19.05
09 19.05
12 19.05
15 19.05
18 19.05
21 19.05
00 20.05
03 20.05
06 20.05
09 20.05
12 20.05
15 20.05
18 20.05
21 20.05
00 21.05
03 21.05
06 21.05
Ветер
(напр.,м/с)
Видим. Явления Облачность Т
(С)
Тd
(С)
f
(%)
Тe
(С)
Тes
(С)
Комфортность P
(гПа)
Po
(гПа)
Тmin
(С)
Tmax
(С)
R
(мм)
R24
(мм)
S
(см)
ЮЗ 6 {14} 50 км 8/0 2000 м
[Ac trans Ci sp]
+24.1 -0.2 20 +23 +25 комфорт 999.1 985.2
ЮЗ 5 {12} 50 км 9/0 2000 м
[Ac trans Ci sp]
+22.8 -1.0 20 +22 +22 комфорт 997.5 983.6 +25.5
З 4 {10} н/о 10/10 1000 м
[Cb cap]
+17.4 -0.2 30 +17 +17 997.7 983.6
ЮЗ 3 н/о 9/6 1000 м
[Cb cap Ci sp]
+10.7 +3.4 61 +9 +9 998.6 984.2
З 4 н/о 9/8 1000 м
[Cb cap Ci sp]
+9.3 +4.8 73 +7 +7 998.7 984.2
З 3 50 км 10/10 1000 м
[Sc]
+5.5 +2.6 82 +2 +2 1000.1 985.3 +5.5 0
СЗ 4 50 км 10/10 1000 м
[Sc]
+4.5 -1.5 65 +1 +1 1000.9 986.1
З 4 {10} 50 км 9/9 1000 м
[Sc]
+6.4 -3.1 51 +3 +4 1002.9 988.1
З 4 50 км 10/10 1000 м
[Sc]
+3.6 -3.8 58 -0 -0 1005.2 990.3
З 3 50 км 10/10 1000 м
[Sc]
+3.0 -5.0 56 -0 -0 1005.5 990.6 +6.4
З 4 н/о слаб. ливневой снег 10/10 1000 м
[Cb cap]
+1.0 -3.2 74 -4 -4 1007.4 992.3
З 3 н/о слаб. ливневой снег 10/10 1000 м
[Cb cap]
-0.2 -1.4 92 -5 -5 1008.3 993.1
З 3 н/о {ливн. снег, метель} 10/10 1000 м
[Cb cap]
-0.3 -2.7 84 -5 -5 1010.2 995.0
З 3 50 км {ливн. снег, метель} 10/10 1000 м
[Cb cap]
0.0 -4.1 74 -4 -4 1013.0 997.7 -0.7 0.7 1
З 4 20 км в посл. час ливневой снег 10/10 1000 м
[Cb cap]
-0.1 -3.5 78 -5 -5 1014.4 999.1
З 3 20 км в посл. час ливневой снег 9/9 1000 м
[Cb cap]
+2.2 -6.1 54 -1 -0 1014.9 999.7
З 4 {13} 20 км {ливн. снег} 10/8 1000 м
[Cb cap As op]
+1.7 -7.3 51 -3 -2 1016.0 1000.8
З 3 {14} 20 км {ливн. снег} 10/6 1000 м
[Cb cap As op]
+1.0 -8.8 48 -3 -3 1017.3 1002.1 +3.4 0.4
З 1 н/о 10/6 1000 м
[Cb cap Cs]
-0.3 -8.0 56 -2 -2 1017.5 1002.2
штиль 0 н/о {ливн. снег} 9/8 1000 м
[Cb cap Ci sp]
-0.8 -5.0 73 -2 -2 1018.3 1002.9
С 1 н/о 10/8 1000 м
[Cb cap As op]
-0.8 -3.3 83 -3 -3 1017.5 1002.2
СЗ 1 20 км слаб. ливневой снег 10/6 1000 м
[Cb cap As op]
-0.6 -1.5 94 -3 -3 1016.9 1001.6 -1.5 0.7 1
СВ 1 50 км {ливн. снег} 10/6 1000 м
[Cb cap Cs]
+2.7 -2.8 67 +1 +5 1015.8 1000.7
Ю 3 50 км {ливн. снег} 10/8 1000 м
[Cb cap As op]
+5.7 -3.4 52 +3 +3 1014.7 999.7
В 2 20 км слаб. ливневой дождь 10/10 1000 м
[Cb cap]
+3.9 +1.1 82 +1 +1 1013.4 998.3
С 1 20 км слаб. ливневой дождь 10/10 1000 м
[Cb cap]
+3.7 +2.5 92 +2 +2 1012.1 997.1 +6.1 3
штиль 0 н/о {ливн. дождь} 10/10 600 м
[Cb cap]
+3.1 +2.3 94 +2 +2 1011.6 996.6
С 1 н/о слаб. ливневой дождь 10/10 600 м
[Cb cap]
+2.5 +1.7 94 +1 +1 1010.6 995.6
штиль 0 н/о {ливн. дождь} 10/10 600 м
[Cb cap]
+2.1 +1.3 94 +1 +1 1010.5 995.4
штиль 0 20 км в посл. час ливневой дождь 10/10 1000 м
[Cb cap]
+3.1 +2.3 94 +2 +2 1009.0 994.0 +2.0 3
В 4 50 км {ливн. дождь} 9/8 1000 м
[Cb cap Ci fib]
+6.4 +3.3 81 +3 +4 1007.6 992.8
В 3 50 км {ливн. дождь} 9/9 1000 м
[Cb cap Ci fib]
+8.5 +3.9 73 +6 +7 1005.4 990.8
ЮВ 2 50 км в посл. час ливневой дождь {гроза} 9/8 1000 м
[Cb cap Ac trans]
+12.4 +6.5 67 +12 +13 1003.6 989.2
СЗ 2 {10} 50 км {гроза, ливн. дождь} 9/9 600 м
[Cb calv]
+13.4 +4.8 56 +13 +13 1003.4 989.0 +14.7 1
СЗ 2 н/о 8/8 600 м
[Cb calv]
+9.7 +0.6 53 +9 +9 1004.7 990.1
З 2 н/о 6/4 1000 м
[Cb cap Ci fib]
+7.2 +1.5 67 +5 +5 1006.0 991.3
З 1 н/о 8/8 2000 м
[Cb cap Cs]
+3.8 +0.1 77 +3 +3 1007.0 992.1
СЗ 3 50 км 10/9 1000 м
[Cb cap Cs]
+4.2 -1.0 69 +1 +1 1008.4 993.4 +3.8
З 3 50 км {ливн. дождь} 9/8 1000 м
[Cb cap Ci sp]
+5.8 +0.7 70 +3 +4 1008.3 993.4
З 3 50 км {ливн. дождь} 10/6 1000 м
[Cb cap Cs]
+10.1 -1.1 46 +8 +12 1006.9 992.3
СЗ 5 50 км 10/10 1000 м
[Cb cap]
+7.9 -2.7 47 +5 +5 1005.9 991.2
З 4 20 км в посл. час ливневой дождь 10/10 1000 м
[Cb cap]
+4.3 +1.5 82 0 0 1006.8 992.0 +10.1 0.6
З 1 н/о 3/3 1000 м
[Sc]
+1.8 -0.7 83 0 0 1009.2 994.1
ЮЗ 2 н/о 3/0 2000 м
[Ac trans Ci fib]
-0.6 -1.5 94 -4 -4 1011.7 996.5
З 3 н/о 3/0
[Ci fib]
-0.7 -5.6 69 -5 -5 1014.2 998.9
З 3 50 км 1/0 2000 м
[Ac trans]
+0.4 -7.0 58 -4 -2 1016.5 1001.2 -1.9
З 4 50 км 4/3 1000 м
[Cu hum Ci fib]
+2.9 -8.1 44 -1 +3 1017.4 1002.3
З 4 50 км 1/0
[Ci fib]
+7.3 -8.4 32 +5 +13 1018.3 1003.4
З 4 50 км 8/0 2000 м
[Ac trans Ci sp]
+9.9 -8.2 27 +8 +12 1017.2 1002.4
СЗ 1 50 км 1/0
[Ci fib]
+10.3 -9.5 24 +11 +13 1016.1 1001.3 +10.3
СЗ 2 н/о 3/0 2000 м
[Ac trans]
+3.6 -7.9 43 +2 +2 1016.6 1001.5
штиль 0 н/о 9/9 1000 м
[Sc]
+1.4 -2.7 74 +1 +1 1017.9 1002.6
С 1 н/о 10/10 1000 м
[Sc]
+1.0 -4.3 68 -1 -1 1019.5 1004.2
штиль 0 50 км 3/3 1000 м
[Sc]
+4.9 -3.4 55 +4 +7 1020.5 1005.4 +0.9
ЮВ 1 50 км 3/0
[Ac trans]
+11.0 -5.9 30 +11 +21 опасность простуды 1020.9 1006.2
СЗ 2 50 км 1/0
[Ci fib]
+13.1 -4.0 30 +13 +26 опасность простуды 1020.2 1005.6
Местоположение метеостанции Вельмо (Красноярский край, Россия): широта 61.02 долгота 93.42 высота над уровнем моря 122 м.
В архиве по умолчанию представлена погода в Вельмо за последнюю неделю. Архивные данные за месяц целиком и за предыдущие месяцы, начиная с января 2011 года, Вы можете получить, выбрав интересующий диапазон дат из раскрывающегося списка и нажав кнопку "Найти!".
*Определитесь, кто Вы:
Внимание! Время в таблицах - всемирное. Для получения местного времени необходимо прибавить поправку, которая равна 7 ч.
Некоторые строки с данными для отдельных станций могут быть выделены курсивом. Это означает, что фактические данные отсутствуют по различным причинам, а приведенные значения являются расчетными модельными данными для данного пункта наблюдений.
Смотрите также архив погоды в соседних городах и на ближайших метеорологических станциях:
Партнеры нашего сайта:      
Пояснения к столбцам:
  • Ветер - указаны скорость ветра в м/с - средняя за 10 мин, порывы в срок и между сроками (в фигурных скобках) и направление, откуда дует ветер: С - северный,
  • СВ - северо-восточный, В - восточный, ЮВ - юго-восточный, Ю - южный, ЮЗ - юго-западный, З - западный, СЗ - северо-западный.
  • Видимость - горизонтальная дальность видимости в метрах или километрах. При видимости от 1 до 10 км при отсутствии осадков обычно наблюдается дымка, при ухудшении видимости до 1 км и менее - туман. В сухую погоду видимость может ухудшаться дымом, пылью или мглою.
  • Явления - указаны атмосферные явления, наблюдавшиеся в срок или в последний час перед сроком; фигурными скобками обозначены явления, наблюдавшиеся между сроками (за 1-3 часа до срока); квадратными скобками обозначены град или гололедные отложения с указанием их диаметра в мм.
  • Облачность - указаны через наклонную черту общая и нижняя облачность в баллах и высота нижней границы облаков в метрах; квадратными скобками обозначены формы облаков: Ci - перистые, Cs - перисто-слоистые, Cc - перисто-кучевые, Ac - высококучевые, As - высокослоистые, Sc - слоисто-кучевые, Ns - слоисто-дождевые, Cu - кучевые, Cb - кучево-дождевые. Подробнее классификацию облаков см. в Атласе облаков (PDF).
  • T - Температура воздуха - температура, измеренная на высоте 2 м над землей.
  • Td - Температура точки росы - температура, при понижении до которой содержащийся в воздухе водяной пар достигнет насыщения.
  • f - Относительная влажность воздуха - влажноcть воздуха, измеренная на высоте 2 м над землей.
  • Te - Эффективная температура - температура, которую ощущает одетый по сезону человек в тени. Характеристика душности погоды. При расчете учитывается влияние влажности воздуха и скорости ветра на теплоощущения человека.
  • Tes - Эффективная температура на солнце - температура, которую ощущает человек, с поправкой на солнечный нагрев. Характеристика знойности погоды. Зависит от высоты солнца над горизонтом, облачности и скорости ветра. Ночью, в пасмурную погоду, а также при ветре 12 м/с и более поправка равна нулю.
  • P - Атмосферное давление - приведенное к уровню моря атмосферное давление.
  • Po - Атмосферное давление - измеренное на уровне метеостанции атмосферное давление.
  • Tmin - Минимальная температура - минимум температуры воздуха на высоте 2 м над землей.
  • Tmax - Максимальная температура - максимум температуры воздуха на высоте 2 м над землей.
  • R - Количество осадков - Количество выпавших осадков за период времени, мм. При наведении курсора мыши на число - период времени, за который выпало указанное количество осадков.
  • R24 - Количество осадков - Количество выпавших осадков за 24 часа, мм.
  • S - Снежный покров - Высота снежного покрова, см. При наведении курсора мыши на число - состояние снежного покрова и степень покрытия местности в баллах.